Wind_Speed
57 65 71 74 76 76 77 79 81 81 81 78 75 74 75 75 76 76 75 72 67 63 63 62 61 61 57 55 56 53 49 47 45 43 40 37 36 35 34 31 28 27 25 23 22 20 18 16 16 16 14 12 12 13 14 13 13 12 11 11 10 9 10
53 60 67 72 76 78 79 81 83 83 82 79 75 74 75 76 77 78 77 74 70 67 66 65 63 62 61 60 59 54 50 47 46 45 42 39 39 38 37 34 30 29 27 25 24 23 21 18 17 17 15 14 13 13 14 14 13 12 11 10 9 9 10
49 56 63 68 74 79 81 83 84 83 82 80 78 76 76 77 78 79 79 77 73 69 69 68 65 64 63 62 60 56 52 49 48 47 45 42 41 40 39 35 33 32 31 29 28 26 24 22 20 18 16 15 14 13 14 14 14 13 12 12 11 10 11
43 52 60 66 71 78 81 83 84 84 83 84 84 81 80 80 81 81 81 81 77 72 70 70 68 66 64 62 58 56 54 52 50 48 46 44 43 42 41 38 36 35 33 31 29 27 26 25 23 21 18 16 15 15 14 15 15 15 14 14 14 13 13
38 47 56 65 72 77 81 83 85 87 87 88 88 87 85 84 84 84 84 84 82 75 70 71 71 67 65 61 58 57 55 53 52 50 48 47 45 44 43 40 38 36 34 32 30 28 27 26 25 24 22 20 18 17 16 16 16 16 16 16 15 14 13
32 41 50 61 70 76 81 84 87 91 91 91 91 91 89 87 86 86 86 86 86 80 71 71 72 69 65 61 59 58 57 55 54 52 50 48 47 46 44 42 40 38 35 33 31 30 29 28 28 27 25 23 21 20 18 17 17 17 17 16 16 14 12
28 36 45 56 66 74 80 85 89 94 95 93 94 93 91 88 86 87 87 87 88 85 75 70 72 70 66 63 61 59 58 56 55 54 51 49 49 48 46 43 41 39 37 35 34 33 31 31 31 29 27 26 24 23 21 20 19 19 19 18 17 15 14
25 32 41 50 62 71 78 85 91 96 96 95 96 95 91 88 87 87 87 86 88 88 80 72 72 72 68 65 62 60 59 57 56 54 51 50 50 49 47 45 42 41 39 37 36 36 35 34 32 30 29 27 26 25 24 23 22 21 20 19 18 17 15
21 29 37 45 56 66 75 82 90 96 97 96 97 96 92 89 87 86 87 87 88 89 84 76 73 73 70 66 63 61 60 59 57 55 53 52 52 50 48 47 44 42 42 41 40 39 38 36 34 33 31 29 28 27 26 24 23 22 21 20 18 17 16
18 25 35 42 50 61 70 78 87 96 97 96 97 95 92 89 88 87 88 88 87 88 85 79 75 75 72 67 64 62 61 60 58 56 55 55 54 52 51 49 45 43 44 44 43 42 40 38 37 35 34 32 31 30 29 27 25 24 23 22 19 18 17
16 21 31 40 46 54 65 74 85 94 98 97 96 95 93 90 88 88 88 87 86 85 84 81 77 75 73 67 64 64 63 61 60 57 56 57 56 55 54 50 47 45 44 45 44 43 42 40 39 38 37 35 34 34 32 30 29 28 26 25 22 21 20
15 18 26 37 44 49 58 70 82 93 98 98 97 96 94 91 89 88 87 86 85 84 84 83 78 75 73 68 64 65 66 64 62 59 57 57 58 58 55 53 51 48 46 46 46 45 44 43 41 41 40 39 37 37 35 34 32 31 29 28 26 24 23
14 16 21 32 42 48 54 65 79 91 98 98 97 97 95 92 90 89 88 86 85 85 85 85 81 75 73 70 66 67 68 67 64 60 56 56 58 59 58 56 54 52 49 48 47 47 46 45 44 43 42 42 40 39 38 36 35 34 32 31 29 28 27
14 14 19 27 38 48 54 63 75 89 97 98 97 97 95 94 92 89 88 87 86 86 86 87 85 78 76 73 68 66 69 68 66 63 57 54 55 57 59 59 56 54 52 50 49 49 48 47 46 45 44 43 42 41 40 38 37 36 35 34 33 32 30
16 14 17 23 33 44 54 62 73 86 96 98 97 96 95 94 92 90 88 87 87 86 86 89 88 81 79 77 69 65 69 69 67 66 61 56 54 54 57 60 60 58 56 55 53 52 51 50 49 48 47 45 44 43 42 41 40 39 37 37 36 34 33
19 15 15 20 28 39 50 61 72 83 94 98 97 96 95 95 93 90 88 87 87 87 87 89 89 83 80 78 70 66 70 70 68 68 64 59 55 54 56 60 63 62 60 58 57 55 54 52 51 50 49 47 46 45 44 43 42 41 40 39 37 36 35
21 17 14 18 25 34 46 59 71 82 92 98 98 97 95 95 93 90 88 87 87 87 87 89 88 80 75 75 70 67 71 71 68 67 67 64 60 57 58 61 62 62 61 60 59 58 56 55 53 52 51 49 48 46 46 45 44 43 42 40 39 39 38
22 19 15 15 22 31 41 55 69 82 91 97 98 98 95 95 93 90 88 87 87 87 87 88 87 76 69 73 72 68 72 73 68 63 62 65 64 60 60 62 63 62 61 61 61 61 59 57 55 53 52 51 49 47 46 46 45 44 43 42 41 41 39
22 21 17 14 20 28 37 48 63 79 90 96 98 98 96 94 93 91 89 87 87 87 87 89 88 78 69 72 73 68 70 74 71 64 60 61 63 60 58 60 64 65 63 61 62 62 60 58 57 55 53 51 50 48 47 46 46 45 44 43 42 41 40
22 21 19 15 16 25 33 43 56 74 88 95 98 98 96 95 93 91 89 88 88 88 88 89 90 81 71 72 72 67 68 73 72 69 65 61 58 57 56 55 57 62 64 63 62 62 62 61 58 56 55 54 51 50 48 47 47 46 44 43 41 41 43
21 21 20 16 15 21 30 39 50 66 83 94 98 98 96 95 94 92 90 88 88 89 88 89 90 82 72 71 72 67 67 74 72 66 66 66 62 58 56 53 51 54 59 61 61 61 62 62 61 59 57 55 53 51 49 48 46 45 43 43 42 42 44
21 21 21 18 15 17 25 35 45 58 76 90 97 98 96 95 95 93 91 89 88 89 89 89 91 85 73 71 74 69 67 75 74 61 57 64 68 67 64 60 54 53 54 55 56 57 58 59 61 61 59 56 55 53 50 48 47 45 44 44 44 44 43
20 20 21 19 16 15 20 30 41 52 68 85 95 98 97 96 95 94 93 91 89 90 90 90 92 89 77 72 75 72 68 75 79 67 56 59 67 74 75 70 64 61 58 57 56 55 54 53 56 60 60 56 54 53 51 49 48 47 47 47 46 46 46
19 19 20 20 18 15 16 25 36 46 60 78 91 96 97 97 97 95 94 92 90 90 90 91 93 92 82 74 76 76 72 76 82 79 69 64 65 74 79 78 75 71 67 64 61 57 53 50 51 57 60 57 54 53 52 51 49 49 49 47 44 42 45
19 19 19 20 20 18 15 20 31 42 54 69 85 94 98 98 98 97 94 93 92 91 91 91 94 94 87 78 77 79 76 78 84 85 79 71 66 70 77 79 80 79 74 69 66 62 58 53 51 54 58 58 56 54 53 53 53 52 51 49 46 44 45
20 19 19 19 20 20 18 18 25 37 49 62 79 92 98 99 99 97 95 93 92 92 92 91 93 96 92 83 79 80 80 79 83 85 83 78 73 72 74 77 79 81 80 76 72 68 64 59 55 56 59 60 59 57 55 54 57 57 55 53 52 52 52
21 20 20 19 19 20 20 19 22 32 44 57 71 86 95 99 99 98 96 95 93 93 92 92 94 97 97 89 81 81 83 81 81 80 79 81 81 78 76 77 80 81 82 82 79 74 71 67 62 60 61 62 62 60 58 58 58 59 59 58 58 59 61
23 22 21 21 19 19 21 21 22 28 39 52 64 79 91 97 99 98 97 96 95 94 93 94 95 97 100 96 87 84 85 84 85 84 77 74 81 83 79 79 82 84 84 84 81 78 76 74 71 68 67 66 65 64 63 63 62 62 61 61 60 61 64
24 23 22 22 21 20 21 23 25 27 35 47 59 72 85 95 98 99 98 96 95 95 94 94 96 97 101 101 95 89 87 86 90 91 79 65 70 79 79 78 81 85 86 86 84 81 79 77 76 75 72 69 68 69 68 68 68 68 66 64 62 62 64
26 25 24 23 23 23 23 24 26 29 33 42 54 66 79 91 97 98 98 96 95 95 94 95 96 97 99 103 101 96 92 89 90 93 85 68 63 69 75 76 77 80 85 87 87 85 83 80 78 77 75 72 70 71 73 73 73 73 73 71 68 66 66
27 26 26 25 25 25 26 26 27 30 33 39 50 62 73 85 94 97 97 95 94 94 94 94 96 98 98 101 104 102 99 94 90 91 92 83 70 66 71 75 76 77 80 85 88 89 87 85 82 79 76 75 74 73 74 76 77 77 78 77 75 73 71
28 27 27 27 26 26 27 27 28 30 33 37 47 57 68 79 88 93 94 92 88 89 92 93 94 97 98 99 102 104 104 101 95 91 93 93 82 71 70 74 76 76 77 79 84 89 91 89 87 84 81 79 79 78 77 77 79 80 81 82 81 80 79
28 28 28 27 27 27 28 28 28 28 31 35 43 53 62 72 82 88 92 89 82 81 88 93 93 95 97 97 100 103 104 105 102 96 94 95 91 80 72 72 74 77 78 77 78 83 89 91 90 88 86 84 83 83 82 81 80 81 84 86 86 85 84
29 29 28 28 27 27 27 28 28 27 28 33 40 48 56 65 76 81 83 83 81 80 86 92 93 94 97 97 98 101 104 106 107 105 99 96 96 92 83 76 74 75 78 80 79 80 84 88 90 90 90 88 86 85 86 86 85 84 84 86 88 90 90
29 29 29 27 26 27 27 28 26 25 26 31 38 45 51 60 72 75 71 72 76 79 85 91 92 92 96 98 97 99 103 105 108 110 107 102 99 99 95 88 82 79 78 80 81 81 82 85 89 91 92 91 89 86 85 86 88 90 90 89 89 90 92
30 29 28 27 26 26 27 27 24 22 25 30 36 44 51 58 68 74 71 67 65 66 75 86 90 89 93 97 99 99 101 104 106 110 112 110 105 102 101 98 94 90 85 83 82 82 82 84 87 90 93 94 94 91 88 86 86 88 92 94 94 94 94
29 29 27 25 25 26 27 25 21 19 24 29 34 43 52 59 67 74 73 66 60 57 62 73 81 85 89 95 100 100 100 102 105 107 111 113 112 108 105 103 101 99 96 91 87 85 84 84 84 87 91 94 96 97 95 93 90 89 89 91 93 95 97
Wind_Direction
222 220 217 215 215 213 211 211 211 211 212 211 210 209 208 206 204 203 202 198 194 197 199 198 198 198 198 201 206 209 207 205 205 206 206 203 201 203 206 206 204 202 201 199 199 196 191 187 185 182 180 172 166 165 163 158 153 149 144 137 129 120 111
221 219 217 215 214 213 211 209 209 210 211 211 210 209 208 206 205 203 202 198 193 196 199 198 198 199 200 202 205 209 210 207 204 205 206 205 203 204 207 207 205 204 204 202 202 201 196 192 191 190 186 176 168 166 167 166 162 158 156 151 146 141 135
220 217 216 214 213 213 211 208 207 207 209 210 209 209 208 207 205 203 202 198 194 195 198 198 199 200 203 205 207 209 210 208 206 205 205 207 206 206 208 209 208 207 207 205 206 205 201 197 196 194 189 181 172 167 167 168 166 164 161 156 150 144 144
223 217 214 212 212 212 211 209 206 205 206 207 207 207 207 206 205 203 202 199 195 194 197 198 199 201 204 207 208 209 210 209 208 206 206 208 207 207 207 209 210 212 211 209 209 210 206 203 201 199 193 186 180 174 170 167 165 164 162 157 149 140 138
227 220 215 211 210 210 209 207 205 203 204 205 206 206 205 205 204 202 201 199 196 194 195 198 200 202 205 206 208 209 210 210 210 208 207 208 209 208 208 208 211 214 216 215 213 214 213 209 207 204 198 192 188 184 179 174 170 168 164 161 157 149 143
230 222 217 212 210 209 208 206 203 202 202 203 204 205 205 204 204 202 201 198 197 196 195 197 200 202 204 205 206 209 210 211 212 211 209 208 209 209 209 209 210 213 216 217 216 216 217 214 213 210 204 199 195 192 189 185 182 180 176 174 173 170 166
232 222 217 213 209 207 206 205 203 201 201 201 203 205 205 204 203 203 201 199 198 198 196 197 200 202 203 205 205 207 209 211 212 213 211 209 210 211 211 211 211 212 214 215 216 217 218 218 218 216 210 206 202 199 197 196 195 193 190 190 190 189 189
237 222 216 213 210 207 205 204 202 200 200 200 202 204 205 204 204 203 202 200 199 199 198 198 201 203 204 206 206 206 208 210 212 213 212 210 211 212 212 213 213 213 213 213 214 216 219 219 220 220 217 214 210 208 206 205 205 205 203 201 201 200 201
244 224 215 212 210 207 205 204 202 200 199 199 202 203 204 204 204 203 202 201 200 200 199 199 202 204 205 206 207 206 208 210 211 212 212 211 212 213 214 215 215 214 213 212 212 214 217 219 219 220 220 219 217 216 214 211 211 214 215 213 211 210 211
253 229 216 210 210 209 205 203 202 200 198 199 202 203 203 204 204 203 203 202 201 200 199 199 202 205 205 206 207 208 208 210 211 212 213 213 212 213 214 216 218 216 214 214 214 214 216 218 218 219 220 221 220 221 220 218 216 218 220 221 220 220 221
265 238 221 211 209 209 207 203 201 199 197 198 201 201 202 204 204 204 203 202 201 200 198 198 201 205 205 205 207 209 210 211 211 212 214 214 213 213 214 217 219 218 216 215 216 215 216 218 219 219 220 221 222 223 223 222 222 222 223 224 224 224 226
279 248 227 215 208 208 207 204 201 199 197 198 199 200 201 203 204 204 203 202 201 199 197 197 199 203 203 203 206 210 212 212 211 211 214 216 215 213 214 217 219 219 218 217 217 217 217 218 219 220 220 220 221 223 224 224 224 225 227 227 227 228 229
295 260 235 220 211 206 205 204 202 199 197 198 199 199 200 201 203 204 203 201 201 199 197 197 198 200 201 202 204 208 211 213 211 210 213 216 216 215 216 218 219 219 220 220 219 219 218 219 220 222 222 221 220 222 224 226 226 227 229 231 232 233 233
313 274 244 227 216 208 204 203 202 199 198 198 199 199 199 201 203 203 202 201 200 199 197 197 198 199 200 202 204 206 209 211 211 209 209 214 216 217 218 220 220 221 222 222 222 222 221 220 221 223 224 224 222 222 223 225 228 228 229 231 233 235 237
322 290 253 233 221 212 206 202 201 200 198 198 199 199 199 201 202 203 202 201 200 199 197 197 199 200 201 203 205 206 207 210 211 210 209 212 215 217 219 221 221 222 223 224 224 224 223 222 222 223 225 225 224 223 224 226 227 229 230 231 232 234 236
325 306 267 240 226 217 209 204 201 200 199 198 198 199 199 201 202 203 202 201 199 199 198 197 199 201 203 205 206 207 208 210 213 213 212 213 214 216 219 221 221 222 223 224 225 226 225 224 223 224 226 227 226 225 225 227 229 230 231 232 233 234 236
324 316 284 249 230 220 213 207 202 200 199 199 199 199 199 201 202 203 202 201 200 199 198 198 198 201 205 208 208 208 209 210 213 215 217 217 216 217 221 222 223 224 225 226 226 227 228 227 226 225 226 227 227 226 226 229 230 232 233 234 235 236 237
320 319 300 261 236 224 217 210 204 201 200 199 199 199 199 200 202 202 202 201 200 199 198 198 198 197 201 207 208 208 209 210 211 214 218 220 220 221 225 227 227 226 226 227 227 228 229 229 228 226 224 225 227 228 228 229 232 234 235 236 236 237 239
317 317 309 279 244 229 220 213 208 204 200 199 200 200 199 200 201 202 202 201 201 199 198 199 198 195 197 203 207 207 208 210 211 211 214 219 222 224 226 229 229 228 227 227 228 228 228 229 229 227 224 223 225 227 228 230 232 234 236 237 238 239 240
313 313 311 294 256 234 223 216 210 206 202 200 200 201 200 200 201 202 202 201 201 200 198 198 198 196 196 201 205 205 207 209 210 211 212 215 219 222 223 225 228 228 227 227 228 228 228 228 229 227 224 222 223 225 227 230 231 233 235 237 239 240 242
309 309 309 302 273 242 227 218 212 208 205 202 201 201 201 200 201 202 203 202 201 200 199 199 199 197 196 200 204 204 206 208 209 211 213 213 214 215 214 215 219 223 224 225 226 226 227 228 228 227 224 222 222 224 226 229 230 232 234 237 238 240 243
305 306 305 303 287 254 233 222 215 209 207 204 202 201 201 201 202 203 203 203 202 201 200 199 199 198 196 200 203 202 204 207 206 207 214 216 216 215 210 208 212 217 221 222 222 221 223 226 228 228 226 224 223 224 226 228 229 231 232 235 236 238 240
301 302 301 300 292 268 241 227 218 212 208 206 204 202 202 202 203 203 203 203 203 202 201 199 200 199 196 199 203 202 202 205 204 204 211 216 217 217 213 210 212 216 219 222 221 220 222 225 226 226 226 226 226 226 227 227 229 231 232 233 235 237 236
295 297 296 296 292 278 250 232 223 215 210 207 205 204 203 203 203 204 204 204 204 203 202 200 200 200 197 198 202 201 201 205 205 205 211 215 218 219 217 215 215 216 218 221 222 222 223 226 226 224 225 226 227 228 229 228 229 231 232 231 231 234 235
288 290 290 291 290 283 261 236 226 220 213 209 207 206 205 204 204 204 204 204 204 204 203 201 201 201 199 198 200 201 202 205 207 208 212 215 217 218 218 217 218 219 218 219 221 223 224 225 226 225 224 225 226 227 229 230 231 231 231 230 229 231 234
283 283 283 284 285 284 272 246 228 222 217 211 208 207 206 205 205 205 205 205 204 204 204 203 202 203 201 199 200 202 203 206 208 211 215 218 217 217 218 218 219 220 220 220 221 222 224 225 227 227 225 224 225 226 227 230 233 233 232 231 231 231 232
280 279 278 277 277 279 275 260 236 225 220 215 211 208 207 207 206 206 206 206 205 205 205 204 204 204 203 201 201 203 205 206 207 211 217 221 220 218 219 220 219 220 221 222 223 223 224 225 227 228 226 224 224 224 224 225 230 233 233 233 233 232 232
278 276 276 274 272 272 272 267 250 231 224 219 214 210 208 208 207 206 207 207 206 206 206 205 205 205 205 204 203 203 205 206 207 210 216 222 224 223 224 224 223 222 222 223 224 225 226 226 226 227 227 225 224 224 223 223 226 230 232 234 234 234 234
277 276 275 275 273 270 268 266 258 241 227 222 217 212 209 208 208 207 207 208 208 207 207 207 207 207 207 207 205 205 206 208 210 212 214 219 223 225 228 228 226 224 224 224 224 227 229 229 228 228 227 226 226 226 225 223 223 226 229 233 235 237 238
277 276 276 275 275 272 268 265 262 250 233 224 219 215 211 209 208 208 208 208 208 208 208 208 208 209 209 209 208 208 208 210 212 213 214 217 221 225 228 229 228 226 225 225 225 227 230 231 231 231 229 228 228 229 227 225 224 225 227 230 233 235 237
276 276 276 276 276 275 271 267 263 255 240 226 220 217 213 210 209 208 208 209 210 210 210 210 210 210 211 211 211 211 211 212 213 214 215 219 222 222 223 226 228 228 226 226 226 228 231 233 234 233 232 230 230 230 230 228 226 225 226 229 231 233 235
274 275 275 275 275 276 274 270 265 258 245 229 220 217 214 210 208 208 208 208 210 212 213 213 213 213 213 213 214 214 214 214 215 215 216 219 221 220 217 219 226 230 230 229 228 228 231 234 235 235 234 233 232 232 232 231 230 227 226 228 231 233 234
273 274 275 275 276 277 276 274 269 260 246 230 219 216 214 211 208 207 207 207 209 212 215 215 215 215 215 215 216 216 216 216 216 217 218 218 219 219 217 216 221 228 232 233 231 230 230 232 234 235 235 234 234 234 234 234 234 232 230 229 230 232 235
273 274 275 276 277 280 280 279 274 263 245 228 217 212 211 209 207 205 206 207 209 212 215 215 215 216 217 217 217 218 218 218 218 219 219 219 219 220 220 218 218 223 229 233 234 232 231 231 232 234 235 235 235 236 236 236 237 236 235 233 232 232 234
272 273 274 277 280 283 284 283 279 264 240 222 212 207 205 205 203 200 200 204 209 214 216 215 215 216 217 218 219 219 219 219 219 220 221 221 220 221 222 222 221 221 223 228 232 234 233 232 231 233 235 236 236 236 237 238 239 239 239 237 236 236 236
270 272 274 278 282 286 288 286 281 261 233 216 207 201 198 200 199 195 194 200 208 214 218 217 216 217 218 219 219 220 221 221 221 221 222 223 223 223 223 224 224 224 223 223 226 230 233 234 233 233 234 235 236 236 236 237 238 240 241 241 241 241 240
268 270 274 279 283 288 290 289 281 254 224 209 201 196 193 193 192 189 189 194 200 206 212 215 216 217 219 220 221 221 222 222 223 223 223 224 225 225 225 225 225 225 225 225 224 226 229 232 234 234 234 235 236 237 237 237 238 238 240 241 242 243 243
Height
10775 10781 10788 10795 10802 10811 10818 10826 10833 10840 10848 10857 10865 10872 10880 10888 10895 10901 10907 10913 10919 10923 10926 10931 10936 10940 10945 10948 10951 10957 10963 10968 10972 10975 10978 10981 10984 10987 10989 10991 10994 10996 10998 11000 11002 11003 11005 11006 11007 11009 11010 11010 11011 11012 11013 11013 11014 11015 11015 11016 11016 11016 11016
10767 10772 10779 10786 10794 10801 10808 10816 10824 10834 10843 10853 10862 10869 10875 10882 10889 10895 10901 10907 10913 10916 10919 10926 10931 10935 10940 10943 10947 10954 10960 10964 10968 10971 10975 10977 10980 10984 10986 10989 10992 10994 10995 10997 10999 11001 11003 11005 11006 11007 11009 11010 11011 11012 11012 11013 11014 11014 11015 11016 11016 11016 11016
10759 10764 10770 10778 10785 10791 10799 10809 10818 10829 10839 10848 10855 10862 10868 10876 10883 10890 10896 10902 10907 10910 10914 10921 10926 10931 10935 10938 10943 10950 10956 10960 10964 10967 10970 10973 10977 10980 10983 10987 10989 10990 10992 10994 10996 10998 11001 11002 11004 11006 11007 11009 11010 11011 11012 11013 11013 11014 11014 11015 11016 11016 11016
10752 10756 10761 10769 10776 10782 10790 10801 10812 10822 10829 10836 10843 10850 10857 10864 10872 10880 10888 10895 10901 10904 10908 10915 10921 10926 10930 10934 10939 10946 10952 10956 10959 10963 10966 10969 10972 10976 10980 10983 10985 10987 10989 10991 10994 10996 10999 11000 11002 11004 11006 11007 11009 11010 11011 11012 11012 11013 11014 11014 11015 11016 11016
10745 10748 10752 10759 10765 10771 10779 10792 10804 10812 10818 10824 10832 10838 10844 10852 10860 10869 10878 10886 10894 10899 10903 10910 10915 10921 10926 10930 10936 10942 10948 10951 10955 10959 10962 10965 10968 10972 10976 10979 10982 10984 10987 10989 10992 10995 10997 10999 11000 11001 11003 11005 11006 11008 11009 11010 11011 11012 11013 11013 11014 11015 11016
10739 10742 10745 10749 10755 10763 10772 10783 10793 10800 10806 10814 10823 10828 10834 10843 10853 10861 10870 10878 10886 10893 10899 10905 10910 10916 10921 10926 10931 10937 10943 10947 10950 10953 10957 10961 10965 10968 10972 10975 10978 10981 10984 10987 10990 10992 10994 10996 10996 10998 11001 11002 11004 11005 11006 11008 11009 11010 11011 11012 11012 11013 11014
10734 10735 10738 10742 10748 10755 10764 10773 10781 10789 10796 10805 10813 10820 10829 10839 10847 10856 10864 10872 10880 10887 10894 10900 10906 10911 10917 10922 10927 10933 10938 10942 10945 10949 10954 10958 10961 10964 10968 10972 10975 10978 10980 10983 10986 10989 10991 10992 10994 10996 10998 11000 11001 11003 11004 11005 11006 11007 11008 11009 11010 11011 11012
10729 10730 10733 10737 10741 10747 10754 10763 10771 10780 10789 10799 10805 10813 10825 10834 10842 10851 10860 10867 10874 10881 10889 10895 10901 10907 10912 10918 10923 10928 10933 10937 10940 10946 10951 10954 10957 10961 10964 10968 10971 10974 10977 10980 10983 10985 10987 10989 10991 10994 10996 10998 11000 11001 11002 11003 11005 11005 11006 11007 11008 11009 11010
10726 10727 10728 10732 10736 10741 10746 10755 10764 10773 10784 10793 10798 10808 10821 10829 10838 10847 10854 10860 10868 10875 10883 10890 10896 10902 10908 10913 10919 10924 10928 10932 10936 10942 10946 10949 10953 10957 10960 10963 10966 10970 10973 10975 10978 10980 10983 10986 10988 10991 10993 10996 10997 10999 11000 11002 11003 11004 11005 11006 11007 11008 11009
10722 10723 10725 10727 10731 10736 10741 10749 10758 10769 10779 10787 10795 10806 10817 10825 10834 10841 10846 10853 10861 10869 10878 10885 10891 10897 10903 10909 10914 10920 10924 10928 10932 10937 10940 10944 10948 10952 10955 10958 10962 10965 10968 10971 10974 10976 10979 10982 10984 10987 10990 10992 10994 10996 10997 10999 11001 11002 11003 11005 11006 11007 11007
10719 10721 10722 10724 10727 10732 10738 10744 10752 10763 10774 10781 10790 10801 10811 10819 10829 10835 10840 10848 10857 10866 10875 10881 10887 10892 10898 10905 10910 10915 10920 10924 10928 10931 10934 10938 10943 10946 10950 10953 10957 10960 10964 10967 10970 10973 10975 10978 10980 10983 10985 10988 10990 10992 10994 10995 10997 10998 11000 11002 11003 11004 11005
10717 10717 10719 10721 10723 10727 10734 10741 10747 10757 10767 10774 10783 10794 10803 10813 10822 10828 10835 10844 10852 10861 10869 10875 10882 10888 10894 10901 10906 10909 10914 10918 10922 10926 10929 10933 10936 10941 10945 10948 10951 10955 10958 10962 10965 10969 10971 10973 10975 10978 10980 10983 10985 10987 10990 10992 10994 10995 10996 10998 11000 11001 11002
10715 10715 10716 10718 10720 10723 10728 10736 10743 10752 10761 10769 10777 10786 10796 10806 10814 10820 10829 10838 10846 10854 10862 10869 10877 10883 10890 10896 10900 10903 10908 10913 10917 10921 10925 10928 10931 10936 10940 10943 10946 10949 10952 10956 10960 10963 10966 10968 10970 10972 10975 10978 10980 10983 10985 10988 10990 10991 10993 10995 10996 10997 10998
10714 10713 10714 10715 10718 10720 10723 10729 10738 10746 10755 10764 10773 10782 10791 10799 10806 10814 10823 10831 10839 10847 10855 10863 10871 10878 10885 10890 10893 10898 10903 10907 10911 10915 10919 10923 10926 10930 10934 10937 10941 10944 10947 10950 10954 10957 10961 10963 10965 10968 10970 10973 10976 10979 10981 10983 10985 10987 10989 10991 10992 10993 10994
10714 10712 10711 10712 10715 10717 10720 10725 10732 10740 10749 10758 10768 10778 10787 10794 10800 10809 10817 10825 10832 10841 10849 10857 10865 10872 10879 10884 10888 10894 10899 10903 10906 10910 10914 10918 10921 10924 10928 10931 10934 10938 10941 10944 10948 10951 10954 10957 10960 10963 10965 10968 10971 10974 10977 10978 10980 10982 10984 10986 10987 10989 10990
10714 10711 10710 10710 10712 10715 10719 10722 10727 10735 10743 10752 10761 10771 10781 10788 10796 10804 10813 10820 10827 10835 10843 10850 10859 10868 10875 10880 10884 10889 10894 10898 10901 10905 10909 10913 10916 10919 10921 10924 10927 10931 10935 10939 10942 10945 10948 10952 10955 10958 10961 10963 10966 10970 10972 10974 10976 10978 10980 10981 10983 10985 10986
10713 10711 10709 10708 10709 10712 10715 10719 10723 10729 10738 10747 10755 10764 10774 10782 10791 10799 10808 10815 10822 10830 10837 10846 10857 10868 10875 10878 10879 10882 10887 10892 10897 10901 10904 10908 10911 10914 10916 10918 10922 10927 10931 10934 10937 10940 10943 10947 10951 10954 10957 10959 10962 10965 10968 10970 10971 10973 10975 10977 10979 10981 10982
10711 10710 10708 10707 10707 10708 10711 10716 10721 10725 10733 10742 10750 10758 10767 10776 10785 10793 10802 10810 10817 10825 10833 10843 10853 10861 10866 10869 10872 10875 10881 10888 10895 10900 10902 10904 10907 10910 10912 10915 10919 10923 10927 10930 10933 10936 10939 10943 10946 10950 10953 10955 10957 10960 10962 10965 10966 10968 10971 10973 10975 10976 10978
10708 10708 10707 10706 10705 10706 10708 10713 10718 10723 10729 10737 10745 10754 10763 10771 10779 10787 10796 10804 10811 10819 10827 10836 10844 10849 10852 10858 10864 10870 10877 10884 10889 10895 10899 10902 10905 10907 10908 10910 10913 10917 10921 10924 10927 10931 10935 10938 10941 10945 10948 10950 10952 10954 10957 10959 10961 10963 10966 10969 10971 10973 10974
10706 10706 10706 10704 10703 10703 10705 10709 10714 10720 10727 10733 10741 10750 10759 10767 10774 10782 10790 10798 10805 10813 10820 10828 10836 10842 10847 10853 10858 10863 10870 10875 10880 10887 10894 10898 10901 10902 10903 10905 10907 10910 10914 10917 10920 10924 10928 10932 10935 10939 10942 10944 10947 10949 10951 10953 10956 10959 10962 10965 10968 10970 10970
10704 10704 10704 10703 10702 10701 10702 10705 10711 10717 10724 10730 10737 10746 10755 10763 10770 10777 10786 10793 10800 10808 10815 10823 10831 10838 10844 10849 10853 10856 10861 10866 10873 10881 10887 10890 10893 10894 10896 10900 10902 10904 10907 10910 10914 10918 10922 10925 10929 10932 10936 10938 10941 10944 10946 10949 10952 10956 10960 10962 10964 10966 10967
10702 10701 10701 10701 10700 10700 10700 10703 10707 10713 10719 10726 10733 10741 10750 10758 10765 10772 10780 10788 10795 10803 10810 10818 10826 10833 10839 10843 10846 10850 10854 10859 10868 10875 10879 10881 10882 10884 10888 10892 10894 10898 10901 10905 10909 10912 10916 10919 10923 10927 10931 10934 10937 10940 10943 10946 10949 10952 10955 10956 10958 10961 10962
10700 10699 10698 10698 10698 10698 10699 10700 10704 10709 10714 10721 10729 10738 10746 10752 10759 10766 10774 10783 10790 10797 10805 10813 10820 10827 10834 10837 10840 10844 10847 10851 10859 10864 10866 10868 10870 10873 10878 10883 10887 10892 10897 10901 10904 10907 10911 10914 10918 10922 10926 10930 10933 10936 10938 10941 10944 10946 10948 10950 10952 10954 10956
10698 10697 10696 10695 10696 10697 10697 10698 10700 10704 10710 10716 10725 10733 10740 10745 10752 10760 10769 10777 10785 10792 10800 10807 10814 10821 10828 10831 10833 10837 10839 10842 10848 10851 10851 10855 10859 10864 10870 10876 10881 10886 10891 10896 10900 10903 10906 10910 10913 10917 10921 10924 10927 10929 10932 10935 10938 10939 10941 10944 10947 10948 10948
10696 10695 10694 10693 10693 10693 10695 10696 10697 10700 10705 10712 10718 10725 10732 10738 10745 10754 10763 10771 10779 10786 10794 10802 10807 10815 10821 10824 10826 10829 10832 10835 10840 10842 10842 10846 10851 10856 10863 10869 10875 10880 10886 10892 10896 10898 10901 10904 10907 10910 10914 10917 10919 10923 10927 10929 10930 10931 10934 10936 10939 10940 10940
10693 10692 10692 10691 10690 10690 10691 10693 10695 10696 10700 10704 10709 10717 10725 10732 10740 10749 10758 10765 10773 10780 10788 10796 10802 10808 10813 10816 10819 10822 10825 10828 10833 10836 10837 10840 10844 10850 10856 10862 10868 10874 10878 10883 10886 10890 10894 10897 10900 10903 10907 10910 10912 10916 10920 10922 10922 10924 10927 10929 10931 10932 10932
10689 10689 10689 10688 10688 10688 10688 10689 10691 10693 10695 10698 10703 10711 10719 10726 10735 10744 10752 10759 10767 10774 10782 10790 10796 10801 10805 10809 10812 10815 10818 10821 10827 10831 10833 10835 10839 10845 10850 10856 10861 10865 10869 10873 10877 10881 10885 10888 10890 10892 10896 10901 10904 10908 10912 10915 10915 10917 10919 10920 10921 10921 10922
10685 10685 10685 10685 10685 10686 10685 10685 10687 10689 10690 10693 10698 10705 10712 10719 10728 10737 10745 10753 10761 10768 10775 10782 10788 10792 10796 10801 10805 10808 10810 10814 10818 10824 10829 10831 10835 10840 10845 10850 10854 10858 10861 10867 10872 10874 10875 10877 10878 10880 10884 10891 10896 10900 10904 10907 10909 10910 10911 10911 10911 10911 10912
10680 10680 10680 10680 10681 10682 10682 10682 10682 10683 10685 10688 10692 10698 10705 10712 10721 10729 10737 10746 10754 10762 10769 10776 10780 10785 10789 10794 10798 10801 10804 10807 10811 10818 10824 10827 10828 10833 10839 10844 10848 10851 10855 10860 10865 10867 10868 10870 10872 10874 10879 10885 10890 10893 10896 10899 10901 10903 10905 10905 10905 10906 10906
10675 10675 10676 10676 10676 10677 10677 10677 10677 10678 10680 10682 10685 10690 10697 10705 10713 10722 10731 10740 10749 10756 10763 10769 10774 10778 10782 10787 10791 10795 10798 10801 10806 10812 10818 10821 10823 10827 10832 10836 10841 10845 10849 10853 10858 10860 10862 10864 10866 10869 10875 10880 10883 10886 10889 10891 10893 10896 10898 10898 10899 10900 10900
10670 10671 10671 10671 10671 10671 10671 10672 10672 10672 10673 10675 10678 10682 10688 10697 10707 10717 10727 10737 10746 10753 10758 10763 10767 10771 10776 10780 10784 10788 10792 10796 10800 10806 10811 10816 10819 10822 10825 10829 10833 10837 10841 10845 10850 10853 10855 10857 10860 10864 10868 10873 10875 10877 10880 10883 10886 10888 10890 10890 10891 10892 10893
10666 10666 10666 10666 10666 10666 10665 10665 10666 10666 10666 10668 10671 10675 10681 10689 10700 10712 10723 10734 10743 10750 10754 10758 10762 10766 10770 10774 10778 10782 10786 10790 10794 10799 10803 10809 10814 10817 10820 10822 10826 10829 10833 10837 10841 10845 10847 10849 10852 10856 10860 10864 10866 10868 10871 10874 10877 10879 10881 10881 10882 10883 10884
10661 10661 10661 10661 10661 10660 10660 10659 10659 10659 10660 10661 10665 10669 10675 10684 10695 10706 10718 10731 10740 10744 10747 10750 10755 10760 10764 10768 10772 10775 10779 10783 10788 10791 10795 10800 10807 10811 10813 10816 10819 10822 10825 10828 10832 10836 10839 10841 10844 10847 10851 10854 10856 10858 10861 10864 10866 10869 10871 10872 10873 10874 10875
10657 10656 10656 10656 10656 10655 10654 10653 10652 10652 10653 10655 10658 10663 10670 10678 10688 10701 10715 10726 10731 10733 10735 10738 10743 10749 10754 10759 10763 10767 10770 10774 10779 10783 10787 10792 10797 10802 10805 10808 10811 10813 10816 10819 10822 10826 10829 10832 10835 10838 10841 10844 10847 10848 10851 10853 10856 10858 10860 10862 10864 10865 10866
10652 10651 10651 10651 10651 10650 10649 10647 10646 10646 10647 10649 10652 10657 10664 10672 10681 10695 10709 10717 10720 10722 10724 10728 10733 10738 10742 10746 10751 10755 10759 10763 10768 10772 10778 10782 10787 10792 10796 10799 10802 10804 10807 10810 10813 10816 10819 10823 10826 10829 10832 10835 10838 10840 10842 10843 10845 10847 10850 10852 10854 10855 10857
10647 10646 10646 10647 10647 10645 10644 10642 10641 10641 10642 10644 10648 10653 10659 10666 10676 10688 10699 10706 10711 10715 10717 10720 10725 10730 10732 10735 10739 10743 10747 10752 10757 10761 10766 10771 10776 10781 10785 10788 10792 10795 10798 10800 10803 10806 10809 10813 10816 10820 10822 10825 10828 10831 10833 10835 10836 10838 10839 10841 10843 10845 10847
10643 10642 10642 10643 10643 10641 10639 10638 10637 10637 10638 10641 10645 10649 10654 10662 10672 10681 10689 10696 10702 10704 10705 10709 10715 10719 10722 10725 10728 10732 10736 10741 10745 10750 10754 10759 10764 10768 10773 10777 10781 10785 10788 10791 10795 10798 10800 10803 10806 10809 10812 10815 10817 10820 10822 10825 10826 10827 10829 10830 10832 10833 10835